ORBCOMM FM 28

Satellite information

Favourite Embed

Satellite Type and Status

PAYLOADIN ORBIT

Key statistics

Satellite ORBCOMM FM 28 at a glance.

Uptime

9885

Days in orbit

Revolutions

≈ 14.4

Per day

Orbit

LEO

Low Earth Orbit

Inclination

45.0

Latest

Satellite identification and parameters

Extended collection of information and parameters for ORBCOMM FM 28.

Object identification

Identified? True

Debris? False

Object name: ORBCOMM FM 28

International designator: 1998-053H

Object number (NORAD): 25482

Object ID (CCSDS): 25482

Country: ORBITAL TELECOMMUNICATIONS SATELLITE (GLOBALSTAR) (ORB)

Current information (Y/N): Y

RCS size: MEDIUM

Orbital parameters

Period: 100.099 minutes

Inclination: 45.0068 deg

SMA: 7141.331 km

Apoapsis: 767.475 km

Periapsis: 758.917 km

RAAN: 352.525 deg

Eccentricy: 0.00059914

Argument of periapsis: 202.459 deg

Mean anomaly: 157.5997 deg

Mean motion: 14.3857997 rev/day

Mean motion (dot): 0.000016 rev/day2

B* drag term: 0.00056391199 1/REarth

Two-line elements (TLE)

Creation date: Oct. 16, 2025, 2:37 a.m.

Reference frame: TEME

Reference center: EARTH

Epoch: Oct. 15, 2025, 9 p.m. UTC

TLE line 0: 0 ORBCOMM FM 28

TLE line 1: 1 25482U 98053H 25288.87524522 .00001600 00000-0 56391-3 0 9990

TLE line 2: 2 25482 45.0068 352.5250 0005991 202.4590 157.5997 14.38579970415730

Live tracking on map

Real-time ground track for satellite ORBCOMM FM 28.

In-orbit conjunctions

A list of the most updated potential collisions computed for object ORBCOMM FM 28.

Target Orbit TCA Probability of collision Miss distance Type
DMSP 5D-2 F13 DEB SSO 2025-09-11 10:49:23 0.0001928331 250.0 (m) DEBRIS
SL-16 DEB LEO 2025-08-03 21:46:15 0.001047175 251.0 (m) DEBRIS
DMSP 5D-2 F13 DEB SSO 2025-07-24 10:20:21 0.000116694 918.0 (m) DEBRIS
DMSP 5D-2 F13 DEB SSO 2025-07-14 10:03:17 0.0004970042 394.0 (m) DEBRIS
COSMOS 2251 DEB LEO 2025-02-08 18:34:14 0.0005866272 320.0 (m) DEBRIS

Associated space launch

ORBCOMM FM 28 was lifted into orbit during the mission ‘Pegasus XL HAPS | Orbcomm-C1 - C8’, on board a Pegasus XL HAPS space rocket.

The launch took place on Sept. 23, 1998, 5:06 a.m. from Wallops Flight Facility.

For more information about the launch, click the button.

Launch to space Pegasus XL HAPS | Orbcomm-C1 - C8
Pegasus XL HAPS | Orbcomm-C1 - C8

Agency: N/A

Status: Launch Successful

Launch date: Sept. 23, 1998, 5:06 a.m. UTC

Rocket: Pegasus XL HAPS

Launch pad: Wallops Flight Facility

Location: Air launch to orbit

...

Latest news about this satellite

There are no fresh news available about this satellite. Check back as we update our databases every day.


Newsletter sign-up

Weekly statistics, charts and insights to help you stay on top of the space industry.